Weather in Kolobovka

Russia / Volgograd Oblast     48°39′33″N   45°27′19″E
temp.,
°C
wind,
m/s
gust,
m/s
humid.,
%
clouds,
%
prec.,
mm/h
press.,
hPa
HPBL,
m
26 july, mon
mon2600:00+24ne6113575 0.0 1020338
03:00+23ne5939100 0.0 1020321
06:00+23ene5103898 0.0 1021385
09:00+27ene673166 0.0 1021847
12:00+30ene65255 0.0 10211873
15:00+31ne63232 0.0 10202699
18:00+29ne662530 0.0 10201412
21:00+25ne6122938 0.0 1020316
27 july, tue
tue2700:00+23ene5113238 0.0 1020252
03:00+21ne47367 0.0 1021136
06:00+22ne47361 0.0 1021198
09:00+28nne66256 0.0 10211648
12:00+30nne6621100 0.0 10202184
15:00+31nne6619100 0.0 10182657
18:00+29nne6521100 0.0 10182896
21:00+25n4930100 0.0 1018187
28 july, wed
wed2800:00+23nne4633100 0.0 101899
03:00+21ene2238100 0.0 101811
06:00+23ne23364 0.0 101996
09:00+28ne34270 0.0 10181718
12:00+31ne44237 0.0 10173051
15:00+32nne441918 0.0 10163570
18:00+31nnw55214 0.0 10152649
21:00+26nne34300 0.0 101646
29 july, thu
thu2900:00+24ene47350 0.0 1015122
03:00+23se49354 0.0 1015141
06:00+24sse353438 0.0 1015157
09:00+31ssw222135 0.0 10151607
12:00+34w2318100 0.0 10133373
15:00+36wnw55165 0.0 10123675
18:00+35w45169 0.0 10113443
21:00+28w472517 0.0 1011123
30 july, fri
fri3000:00+25wnw34331 0.0 101154
03:00+23sw34355 0.0 101162
06:00+26w35365 0.0 1012119
09:00+33w562722 0.0 10122013
12:00+34w4525100 0.0 10112940
15:00+36ssw452140 0.0 10092958
18:00+36wsw341990 0.0 10092947
21:00+31nne232878 0.0 100947